Location: Canyon City
(32.5951°N, 116.5278°W)
Time: 01:15:36
(UTC+00:00)

Cosmos 1605 Rocket - Pass Details

Date: 08 September 2024
Orbit: 944 x 1005 km, 82.9° (Epoch: 03 October)

Event Time Altitude Azimuth Distance (km) Brightness Sun altitude
Rises 12:39:06 0° 352° (N) 3,695 7.1 -10.5°
Reaches altitude 10° 12:41:39 10° 351° (N) 2,735 6.4 -10.0°
Maximum altitude 12:47:54 79° 266° (W) 988 4.0 -8.7°
Drops below altitude 10° 12:54:02 10° 180° (S) 2,678 6.2 -7.4°
Sets 12:56:30 0° 179° (S) 3,613 6.9 -6.9°
